This is the latest recevied weather packets stored in our database for station/object N6OIM. If no packets are shown the sender has not sent any weather packets the latest 10 day(s).
| Time | Temp. | Humidity | Pressure | Rain* | Wind** | Luminosity | Snow |
|---|---|---|---|---|---|---|---|
| 1778273320 | 26.11° C | 53% | 1014.7 hPa | 0 mm | - | - | - |
| 1778273027 | 26.11° C | 51% | 1014.7 hPa | 0 mm | - | - | - |
| 1778272700 | 26.11° C | 55% | 1014.7 hPa | 0 mm | - | - | - |
| 1778272412 | 25.56° C | 55% | 1014.9 hPa | 0 mm | - | - | - |
| 1778272122 | 25° C | 56% | 1014.9 hPa | 0 mm | - | - | - |
| 1778271810 | 25° C | 56% | 1014.9 hPa | 0 mm | - | - | - |
| 1778271498 | 25° C | 56% | 1014.9 hPa | 0 mm | - | - | - |
| 1778271207 | 25° C | 55% | 1015 hPa | 0 mm | - | - | - |
| 1778270897 | 24.44° C | 55% | 1015.1 hPa | 0 mm | - | - | - |
| 1778270627 | 24.44° C | 56% | 1015.2 hPa | 0 mm | - | - | - |
| 1778270315 | 24.44° C | 59% | 1015.3 hPa | 0 mm | - | - | - |
| 1778270003 | 24.44° C | 58% | 1015.3 hPa | 0 mm | - | - | - |
| 1778269697 | 23.89° C | 59% | 1015.3 hPa | 0 mm | - | - | - |
| 1778269425 | 23.89° C | 59% | 1015.4 hPa | 0 mm | - | - | - |
| 1778269115 | 23.89° C | 59% | 1015.4 hPa | 0 mm | - | - | - |
| 1778268803 | 23.33° C | 60% | 1015.4 hPa | 0 mm | - | - | - |
| 1778268534 | 23.33° C | 61% | 1015.4 hPa | 0 mm | - | - | - |
| 1778268200 | 22.78° C | 63% | 1015.4 hPa | 0 mm | - | - | - |
| 1778267911 | 22.78° C | 63% | 1015.4 hPa | 0 mm | - | - | - |
| 1778267600 | 22.22° C | 64% | 1015.5 hPa | 0 mm | - | - | - |
| 1778267310 | 22.22° C | 64% | 1015.7 hPa | 0 mm | - | - | - |
| 1778266998 | 22.22° C | 65% | 1015.8 hPa | 0 mm | - | - | - |
| 1778266708 | 21.67° C | 66% | 1015.8 hPa | 0 mm | - | - | - |
| 1778266400 | 21.67° C | 65% | 1015.9 hPa | 0 mm | - | - | - |
| 1778266109 | 21.11° C | 66% | 1015.8 hPa | 0 mm | - | - | - |
* Rain latest hour (hover to see other rain measurements)
** Current wind speed in m/s (hover to see current wind gust speed)